{"data":{"norad_id":59332,"intl_designator":"2024-057N","name":"STARLINK-31594","alt_names":[],"object_type":"PAYLOAD","status":"ACTIVE","operator":null,"country":"US","launch_date":"2024-03-25","launch_site_code":"AFETR","launch_vehicle":null,"mission":null,"orbit_class":"UNKNOWN","rcs_meters":null,"size_class":null,"mass_kg":null,"dimensions":null,"purposes":["comms"],"wikipedia_slug":null,"has_3d_model":false,"image_url":null,"decayed_at":null,"tle_current":{"epoch":"2026-05-25T05:24:49.891680Z","epoch_age_seconds":65877,"freshness":"FRESH","line1":"1 59332U 24057N   26145.22557745 -.00000210  00000+0  18797-5 0  9995","line2":"2 59332  43.0013 126.1337 0000875 264.8352  95.2400 15.27583022121412","mean_motion":15.27583022,"eccentricity":8.75e-5,"inclination_deg":43.0013,"raan_deg":126.1337,"arg_perigee_deg":264.8352,"mean_anomaly_deg":95.24,"bstar":1.8797e-6,"rev_number":12141,"period_min":94.266562226822,"perigee_km":482.43969410779,"apogee_km":483.64040009103,"semimajor_km":6861.1770470994,"source":"CELESTRAK","updated_at":"2026-05-25T13:38:18.905172Z"}}}